TimeCST,TemperatureF,Dew PointF,Humidity,Sea Level PressureIn,VisibilityMPH,Wind Direction,Wind SpeedMPH,Gust SpeedMPH,PrecipitationIn,Events,Conditions,WindDirDegrees,DateUTC
12:15 AM,51.8,48.2,88,30.13,7.0,Calm,Calm,-,N/A,,Clear,0,2013-01-24 06:15:00
12:35 AM,51.8,50.0,94,30.13,5.0,Calm,Calm,-,N/A,,Clear,0,2013-01-24 06:35:00
12:55 AM,51.8,50.0,94,30.13,5.0,Calm,Calm,-,N/A,,Clear,0,2013-01-24 06:55:00
1:15 AM,51.8,50.0,94,30.13,7.0,Calm,Calm,-,N/A,,Clear,0,2013-01-24 07:15:00
1:35 AM,51.8,50.0,94,30.13,7.0,Calm,Calm,-,N/A,,Clear,0,2013-01-24 07:35:00
1:55 AM,50.0,46.4,87,30.13,1.5,Calm,Calm,-,N/A,,Mist,0,2013-01-24 07:55:00
2:15 AM,50.0,46.4,87,30.14,1.5,Calm,Calm,-,N/A,,Mist,0,2013-01-24 08:15:00
2:35 AM,50.0,46.4,87,30.14,1.5,Calm,Calm,-,N/A,,Mist,0,2013-01-24 08:35:00
2:55 AM,46.4,44.6,93,30.14,0.2,Calm,Calm,-,N/A,Fog,Fog,0,2013-01-24 08:55:00
3:15 AM,48.2,46.4,93,30.13,0.2,Calm,Calm,-,N/A,Fog,Fog,0,2013-01-24 09:15:00
3:35 AM,48.2,46.4,93,30.13,0.2,Calm,Calm,-,N/A,Fog,Fog,0,2013-01-24 09:35:00
3:55 AM,46.4,44.6,93,30.13,0.2,Calm,Calm,-,N/A,Fog,Fog,0,2013-01-24 09:55:00
4:15 AM,46.4,44.6,93,30.12,0.2,Calm,Calm,-,N/A,Fog,Fog,0,2013-01-24 10:15:00
4:35 AM,46.4,44.6,93,30.12,0.2,Calm,Calm,-,N/A,Fog,Fog,0,2013-01-24 10:35:00
4:55 AM,44.6,42.8,93,30.12,0.2,Calm,Calm,-,N/A,Fog,Fog,0,2013-01-24 10:55:00
5:15 AM,44.6,44.6,100,30.12,0.2,Calm,Calm,-,N/A,Fog,Fog,0,2013-01-24 11:15:00
5:35 AM,46.4,46.4,100,30.13,0.5,NNE,5.8,-,N/A,Fog,Fog,30,2013-01-24 11:35:00
6:15 AM,46.4,44.6,93,30.15,0.2,ENE,3.5,-,N/A,Fog,Fog,60,2013-01-24 12:15:00
6:35 AM,44.6,44.6,100,30.15,0.2,Calm,Calm,-,N/A,Fog,Fog,0,2013-01-24 12:35:00
6:55 AM,46.4,44.6,93,30.15,0.2,Calm,Calm,-,N/A,Fog,Fog,0,2013-01-24 12:55:00
7:15 AM,46.4,46.4,100,30.17,0.2,East,3.5,-,N/A,Fog,Fog,80,2013-01-24 13:15:00
7:55 AM,48.2,46.4,93,30.16,0.2,Calm,Calm,-,N/A,Fog,Fog,0,2013-01-24 13:55:00
8:15 AM,50.0,48.2,94,30.15,0.2,East,3.5,-,N/A,Fog,Fog,90,2013-01-24 14:15:00
8:35 AM,50.0,48.2,94,30.16,0.2,ENE,4.6,-,N/A,Fog,Fog,60,2013-01-24 14:35:00
8:55 AM,50.0,50.0,100,30.15,0.2,East,3.5,-,N/A,Fog,Fog,80,2013-01-24 14:55:00
9:15 AM,50.0,50.0,100,30.16,0.2,ENE,4.6,-,N/A,Fog,Fog,70,2013-01-24 15:15:00
9:35 AM,50.0,50.0,100,30.18,0.2,NE,5.8,-,N/A,Fog,Fog,40,2013-01-24 15:35:00
9:55 AM,50.0,50.0,100,30.18,0.2,ENE,5.8,-,N/A,Fog,Fog,70,2013-01-24 15:55:00
10:15 AM,50.0,48.2,94,30.18,0.2,NE,5.8,-,N/A,Fog,Fog,50,2013-01-24 16:15:00
10:35 AM,50.0,48.2,94,30.19,0.2,ENE,6.9,-,N/A,Fog,Fog,60,2013-01-24 16:35:00
10:55 AM,50.0,48.2,94,30.18,0.2,ENE,5.8,-,N/A,Fog,Fog,70,2013-01-24 16:55:00
11:15 AM,50.0,50.0,100,30.17,0.2,East,5.8,-,N/A,Fog,Fog,80,2013-01-24 17:15:00
11:35 AM,50.0,50.0,100,30.17,0.2,ENE,4.6,-,N/A,Fog,Fog,60,2013-01-24 17:35:00
11:55 AM,50.0,50.0,100,30.17,0.2,NE,6.9,-,N/A,Fog,Fog,50,2013-01-24 17:55:00
12:15 PM,50.0,50.0,100,30.16,0.2,NE,4.6,-,N/A,Fog,Fog,40,2013-01-24 18:15:00
12:35 PM,50.0,50.0,100,30.16,0.2,NE,3.5,-,N/A,Fog,Fog,40,2013-01-24 18:35:00
12:55 PM,50.0,50.0,100,30.15,0.5,NE,5.8,-,N/A,Fog,Fog,50,2013-01-24 18:55:00
1:35 PM,51.8,50.0,94,30.13,1.5,NNE,4.6,-,N/A,,Overcast,30,2013-01-24 19:35:00
1:55 PM,51.8,50.0,94,30.12,3.0,NE,3.5,-,N/A,,Overcast,40,2013-01-24 19:55:00
2:15 PM,51.8,50.0,94,30.12,4.0,NE,3.5,-,N/A,,Overcast,40,2013-01-24 20:15:00
2:35 PM,53.6,50.0,88,30.12,5.0,Calm,Calm,-,N/A,,Overcast,0,2013-01-24 20:35:00
2:55 PM,53.6,50.0,88,30.11,7.0,NNE,5.8,-,N/A,,Mostly Cloudy,20,2013-01-24 20:55:00
3:15 PM,55.4,48.2,77,30.10,7.0,Calm,Calm,-,N/A,,Scattered Clouds,0,2013-01-24 21:15:00
3:35 PM,55.4,48.2,77,30.10,7.0,Calm,Calm,-,N/A,,Scattered Clouds,0,2013-01-24 21:35:00
3:55 PM,59.0,46.4,63,30.09,10.0,Calm,Calm,-,N/A,,Scattered Clouds,0,2013-01-24 21:55:00
4:15 PM,57.2,46.4,67,30.10,10.0,Calm,Calm,-,N/A,,Clear,0,2013-01-24 22:15:00
4:55 PM,59.0,46.4,63,30.08,10.0,Calm,Calm,-,N/A,,Clear,0,2013-01-24 22:55:00
5:15 PM,57.2,46.4,67,30.08,10.0,Calm,Calm,-,N/A,,Clear,0,2013-01-24 23:15:00
5:35 PM,55.4,46.4,72,30.09,10.0,Calm,Calm,-,N/A,,Clear,0,2013-01-24 23:35:00
5:55 PM,53.6,46.4,77,30.09,10.0,Calm,Calm,-,N/A,,Clear,0,2013-01-24 23:55:00
6:15 PM,51.8,46.4,82,30.08,10.0,Calm,Calm,-,N/A,,Clear,0,2013-01-25 00:15:00
6:35 PM,50.0,46.4,87,30.08,10.0,Calm,Calm,-,N/A,,Clear,0,2013-01-25 00:35:00
6:55 PM,48.2,44.6,87,30.10,7.0,Calm,Calm,-,N/A,,Clear,0,2013-01-25 00:55:00
7:15 PM,50.0,44.6,82,30.10,7.0,NNE,6.9,-,N/A,,Clear,30,2013-01-25 01:15:00
7:35 PM,50.0,42.8,76,30.10,10.0,North,4.6,-,N/A,,Clear,10,2013-01-25 01:35:00
7:55 PM,48.2,41.0,76,30.10,10.0,North,6.9,-,N/A,,Clear,10,2013-01-25 01:55:00
8:15 PM,46.4,39.2,76,30.11,10.0,NNE,8.1,-,N/A,,Clear,30,2013-01-25 02:15:00
8:35 PM,46.4,37.4,71,30.10,10.0,NE,4.6,-,N/A,,Clear,50,2013-01-25 02:35:00
8:55 PM,44.6,37.4,76,30.08,10.0,ENE,5.8,-,N/A,,Scattered Clouds,60,2013-01-25 02:55:00
9:15 PM,44.6,37.4,76,30.08,10.0,ENE,5.8,-,N/A,,Overcast,60,2013-01-25 03:15:00
9:35 PM,46.4,37.4,71,30.09,10.0,NE,5.8,-,N/A,,Overcast,40,2013-01-25 03:35:00
9:55 PM,46.4,39.2,76,30.09,10.0,NNE,5.8,-,N/A,,Overcast,30,2013-01-25 03:55:00
10:15 PM,46.4,41.0,81,30.09,7.0,NNE,6.9,-,N/A,,Overcast,30,2013-01-25 04:15:00
10:35 PM,46.4,41.0,81,30.08,7.0,NE,5.8,-,N/A,,Overcast,50,2013-01-25 04:35:00
10:55 PM,46.4,42.8,87,30.08,5.0,NE,4.6,-,N/A,,Overcast,40,2013-01-25 04:55:00
11:15 PM,46.4,42.8,87,30.08,5.0,NNE,4.6,-,N/A,,Overcast,20,2013-01-25 05:15:00
11:35 PM,46.4,42.8,87,30.07,4.0,ENE,4.6,-,N/A,,Overcast,60,2013-01-25 05:35:00
11:55 PM,46.4,44.6,93,30.08,2.5,North,4.6,-,N/A,,Overcast,10,2013-01-25 05:55:00